Flag for United Kingdom Weather past 2 weeks in Aberdeen, Scotland, United Kingdom

Now
54 °F

Scattered clouds.


Feels Like: 50 °F
Forecast: 53 / 60 °F
Wind: 13 mph from Southeast

Location: Aberdeen / Dyce

Current Time: Aug 27, 2014 at 8:31:29 PM

Latest Report: Aug 27, 2014 at 7:50 PM


Visibility: N/A

Pressure: 29.95 "Hg

Humidity: 82%

Dew point: 48 °F

Location of AberdeenLocation

Historic Weather in Aberdeen — Graph

°F

Aberdeen temperature yesterday

Maximum temperature yesterday: 59 °F (at 2:20 PM)
Minimum temperature yesterday: 41 °F (at 4:50 AM)
Average temperature yesterday: 51 °F

Past Weeks' High & Low Weather Summary

 TemperatureHumidityPressure
High68 °F (Aug 16, 3:20 PM)100% (Aug 21, 5:50 AM)30.07 "Hg (Aug 21, 5:50 AM)
Low36 °F (Aug 25, 5:20 AM)51% (Aug 24, 4:50 PM)29.30 "Hg (Aug 12, 6:20 PM)
Average53 °F82%29.78 "Hg
* Reported Aug 12 6:20 PM — Aug 27 6:50 PM, Aberdeen, Weather by CustomWeather, © 2014

Note: Actual official high and low records may vary slightly from our data, if they occured in-between our weather recording intervals... More about our weather records

Advertising

Aberdeen weather history for previous 24 hours

 ConditionsComfort  
Time TempWeatherWind HumidityBarometerVisibility
6:50 PM
Aug 27
55 °FScattered clouds.12 mph77%29.98 "HgN/A
6:20 PM55 °FScattered clouds.13 mph77%29.98 "HgN/A
5:20 PM57 °FScattered clouds.12 mph72%29.98 "HgN/A
4:50 PM57 °FScattered clouds.12 mph67%29.98 "HgN/A
3:50 PM57 °FScattered clouds.13 mph67%30.01 "HgN/A
3:20 PM59 °FScattered clouds.10 mph63%30.01 "HgN/A
2:50 PM59 °FScattered clouds.12 mph63%30.01 "HgN/A
2:20 PM59 °FScattered clouds.10 mph68%30.01 "HgN/A
1:50 PM59 °FScattered clouds.9 mph63%30.04 "HgN/A
1:20 PM59 °FScattered clouds.9 mph68%30.04 "HgN/A
12:50 PM59 °FScattered clouds.10 mph63%30.04 "HgN/A
12:20 PM59 °FScattered clouds.9 mph63%30.04 "HgN/A
11:50 AM59 °FScattered clouds.10 mph68%30.04 "HgN/A
11:20 AM57 °FScattered clouds.7 mph72%30.07 "HgN/A
10:50 AM57 °FScattered clouds.7 mph72%30.07 "HgN/A
10:20 AM57 °FScattered clouds.6 mph72%30.07 "HgN/A
9:50 AM55 °FScattered clouds.2 mph77%30.07 "HgN/A
9:20 AM52 °FPassing clouds.2 mph82%30.07 "HgN/A
8:50 AM48 °FPassing clouds.3 mph87%30.07 "HgN/A
8:20 AM45 °FPassing clouds.2 mph93%30.07 "HgN/A
7:50 AM43 °FFog.No wind93%30.07 "HgN/A
7:20 AM39 °FFog.2 mph100%30.07 "HgN/A
6:50 AM39 °FFog.3 mph93%30.07 "HgN/A
6:20 AM37 °FFog.No wind100%30.04 "HgN/A
5:50 AM37 °FFog.2 mph100%30.04 "HgN/A
5:20 AM37 °FFog.No wind100%30.04 "HgN/A
4:50 AM39 °FChilly.No wind93%30.07 "HgN/A
4:20 AM39 °FChilly.2 mph93%30.07 "Hg5 mi
3:50 AM39 °FClear.3 mph100%30.07 "Hg10 mi
3:20 AM41 °FClear.No wind93%30.07 "Hg10 mi
2:50 AM41 °FClear.2 mph93%30.07 "Hg10 mi
2:20 AM41 °FClear.No wind100%30.07 "Hg10 mi
1:50 AM41 °FQuite cool.2 mph100%30.07 "HgN/A
1:20 AM43 °FClear.2 mph93%30.07 "Hg10 mi
12:50 AM43 °FClear.3 mph93%30.07 "Hg10 mi
12:20 AM45 °FQuite cool.No wind93%30.07 "HgN/A
11:50 PM
Aug 26
45 °FClear.No wind93%30.07 "Hg10 mi
11:20 PM46 °FCool.No wind93%30.07 "HgN/A
10:50 PM45 °FPassing clouds.2 mph93%30.07 "HgN/A
10:20 PM48 °FPassing clouds.No wind87%30.04 "HgN/A
9:50 PM48 °FPassing clouds.No wind87%30.04 "HgN/A
9:20 PM50 °FPassing clouds.2 mph88%30.04 "HgN/A
8:50 PM52 °FPassing clouds.2 mph82%30.04 "HgN/A
8:20 PM52 °FPassing clouds.2 mph82%30.01 "HgN/A
Weather by CustomWeather, © 2014

See weather overviewHow to use our weather pages